Overview Statistics Trail Chart Weather Telemetry Raw packets
 

This is the latest recevied weather packets stored in our database for station/object G8PZT. If no packets are shown the sender has not sent any weather packets the latest 10 day(s).

<< 1 2 3 4 >>
Time Temp. Humidity Pressure Rain* Wind** Luminosity Snow
1788600521 18.89° C 32% - 0 mm - - -
1788600002 18.33° C 32% - 0 mm - - -
1788599920 18.89° C 32% - 0 mm - - -
1788599320 19.44° C 32% - 0 mm - - -
1788598802 17.78° C 36% - 0 mm - - -
1788598720 17.78° C 36% - 0 mm - - -
1788598120 18.33° C 34% - 0 mm - - -
1788597602 17.78° C 37% - 0 mm - - -
1788597520 17.22° C 37% - 0 mm - - -
1788596920 18.33° C 32% - 0 mm - - -
1788596403 18.89° C 33% - 0 mm - - -
1788596321 18.33° C 34% - 0 mm - - -
1788595721 17.78° C 38% - 0 mm - - -
1788595203 16.67° C 39% - 0 mm - - -
1788594521 16.11° C 42% - 0 mm - - -
1788594003 15.56° C 42% - 0 mm - - -
1788593921 15.56° C 42% - 0 mm - - -
1788592819 15° C 47% - 0 mm - - -
1788592721 15° C 48% - 0 mm - - -
1788592120 15° C 50% - 0 mm - - -
1788591602 14.44° C 51% - 0 mm - - -
1788591520 14.44° C 51% - 0 mm - - -
1788590920 15° C 51% - 0 mm - - -
1788590402 13.89° C 63% - 0 mm - - -
1788590320 13.89° C 63% - 0 mm - - -

* Rain latest hour (hover to see other rain measurements)
** Current wind speed in m/s (hover to see current wind gust speed)